Time,TemperatureF,DewpointF,PressureIn,WindDirection,WindDirectionDegrees,WindSpeedMPH,WindSpeedGustMPH,Humidity,HourlyPrecipIn,Conditions,Clouds,dailyrainin,SoftwareType,DateUTC
2013-07-07 00:11:00,76.0,69.0,29.93,SE,132,0.0,-999.0,78,-99.99,,,-99.99,,2013-07-07 05:11:00,
2013-07-07 00:21:00,76.0,69.0,29.93,SE,132,0.0,-999.0,78,-99.99,,,-99.99,,2013-07-07 05:21:00,
2013-07-07 00:31:00,76.0,69.0,29.93,SE,132,0.0,-999.0,78,-99.99,,,-99.99,,2013-07-07 05:31:00,
2013-07-07 00:41:00,76.0,69.0,29.93,SE,132,0.0,-999.0,78,-99.99,,,-99.99,,2013-07-07 05:41:00,
2013-07-07 00:51:00,76.0,69.0,29.93,SE,132,0.0,-999.0,78,-99.99,,,-99.99,,2013-07-07 05:51:00,
2013-07-07 01:01:00,72.0,69.0,29.94,SW,216,0.0,-999.0,90,-99.99,,,-99.99,,2013-07-07 06:01:00,
2013-07-07 01:11:00,72.0,69.0,29.94,SW,216,0.0,-999.0,90,-99.99,,,-99.99,,2013-07-07 06:11:00,
2013-07-07 01:21:00,72.0,69.0,29.94,SW,216,0.0,-999.0,90,-99.99,,,-99.99,,2013-07-07 06:21:00,
2013-07-07 01:32:00,72.0,69.0,29.93,ESE,102,0.0,-999.0,90,-99.99,,,-99.99,,2013-07-07 06:32:00,
2013-07-07 01:43:00,72.0,69.0,29.93,SE,136,0.0,-999.0,90,-99.99,,,-99.99,,2013-07-07 06:43:00,
2013-07-07 01:52:00,72.0,69.0,29.93,SE,136,0.0,-999.0,90,-99.99,,,-99.99,,2013-07-07 06:52:00,
2013-07-07 02:02:00,71.0,68.0,29.95,ENE,73,0.0,-999.0,91,-99.99,,,-99.99,,2013-07-07 07:02:00,
2013-07-07 02:11:00,71.0,68.0,29.94,ENE,65,0.0,-999.0,90,-99.99,,,-99.99,,2013-07-07 07:11:00,
2013-07-07 02:22:00,71.0,68.0,29.94,ENE,65,0.0,-999.0,90,-99.99,,,-99.99,,2013-07-07 07:22:00,
2013-07-07 02:33:00,71.0,68.0,29.94,ENE,65,0.0,-999.0,90,-99.99,,,-99.99,,2013-07-07 07:33:00,
2013-07-07 02:44:00,71.0,68.0,29.94,ENE,65,0.0,-999.0,90,-99.99,,,-99.99,,2013-07-07 07:44:00,
2013-07-07 02:53:00,71.0,68.0,29.94,ENE,65,0.0,-999.0,90,-99.99,,,-99.99,,2013-07-07 07:53:00,
2013-07-07 03:02:00,71.0,68.0,29.93,ENE,65,0.0,-999.0,91,-99.99,,,-99.99,,2013-07-07 08:02:00,
2013-07-07 03:12:00,70.0,67.0,29.93,ENE,65,0.0,-999.0,91,-99.99,,,-99.99,,2013-07-07 08:12:00,
2013-07-07 03:22:00,70.0,67.0,29.93,ENE,65,0.0,-999.0,91,-99.99,,,-99.99,,2013-07-07 08:22:00,
2013-07-07 03:34:00,70.0,68.0,29.93,ENE,65,0.0,-999.0,92,-99.99,,,-99.99,,2013-07-07 08:34:00,
2013-07-07 03:44:00,70.0,68.0,29.94,ENE,65,0.0,-999.0,92,-99.99,,,-99.99,,2013-07-07 08:44:00,
2013-07-07 03:53:00,70.0,68.0,29.94,ENE,65,0.0,-999.0,92,-99.99,,,-99.99,,2013-07-07 08:53:00,
2013-07-07 04:02:00,69.0,67.0,29.94,ENE,65,0.0,-999.0,93,-99.99,,,-99.99,,2013-07-07 09:02:00,
2013-07-07 04:12:00,69.0,67.0,29.94,ENE,65,0.0,-999.0,93,-99.99,,,-99.99,,2013-07-07 09:12:00,
2013-07-07 04:22:00,69.0,67.0,29.94,ENE,65,0.0,-999.0,93,-99.99,,,-99.99,,2013-07-07 09:22:00,
2013-07-07 04:34:00,69.0,67.0,29.93,ENE,65,0.0,-999.0,93,-99.99,,,-99.99,,2013-07-07 09:34:00,
2013-07-07 04:43:00,69.0,67.0,29.93,ENE,65,0.0,-999.0,93,-99.99,,,-99.99,,2013-07-07 09:43:00,
2013-07-07 04:53:00,69.0,67.0,29.93,ENE,65,0.0,-999.0,93,-99.99,,,-99.99,,2013-07-07 09:53:00,
2013-07-07 05:03:00,69.0,67.0,29.93,ENE,65,0.0,-999.0,93,-99.99,,,-99.99,,2013-07-07 10:03:00,
2013-07-07 05:22:00,68.0,66.0,29.93,ENE,65,0.0,-999.0,93,-99.99,,,-99.99,,2013-07-07 10:22:00,
2013-07-07 05:32:00,68.0,66.0,29.94,ENE,65,0.0,-999.0,94,-99.99,,,-99.99,,2013-07-07 10:32:00,
2013-07-07 05:43:00,68.0,66.0,29.94,ENE,74,0.0,-999.0,94,-99.99,,,-99.99,,2013-07-07 10:43:00,
2013-07-07 05:52:00,68.0,66.0,29.94,ENE,74,0.0,-999.0,94,-99.99,,,-99.99,,2013-07-07 10:52:00,
2013-07-07 06:02:00,68.0,66.0,29.95,ENE,74,0.0,-999.0,94,-99.99,,,-99.99,,2013-07-07 11:02:00,
2013-07-07 06:11:00,68.0,66.0,29.95,SE,133,0.0,-999.0,94,-99.99,,,-99.99,,2013-07-07 11:11:00,
2013-07-07 06:23:00,68.0,66.0,29.95,SE,133,0.0,-999.0,94,-99.99,,,-99.99,,2013-07-07 11:23:00,
2013-07-07 06:34:00,68.0,66.0,29.95,ESE,122,0.0,-999.0,94,-99.99,,,-99.99,,2013-07-07 11:34:00,
2013-07-07 06:43:00,68.0,66.0,29.96,ESE,123,0.0,-999.0,94,-99.99,,,-99.99,,2013-07-07 11:43:00,
2013-07-07 06:53:00,68.0,66.0,29.96,ESE,123,0.0,-999.0,94,-99.99,,,-99.99,,2013-07-07 11:53:00,
2013-07-07 07:02:00,68.0,66.0,29.96,East,90,0.0,-999.0,93,-99.99,,,-99.99,,2013-07-07 12:02:00,
2013-07-07 07:12:00,69.0,67.0,29.96,SE,136,0.0,-999.0,93,-99.99,,,-99.99,,2013-07-07 12:12:00,
2013-07-07 07:22:00,69.0,67.0,29.96,SE,136,0.0,-999.0,93,-99.99,,,-99.99,,2013-07-07 12:22:00,
2013-07-07 07:34:00,69.0,67.0,29.95,SSE,167,0.0,-999.0,92,-99.99,,,-99.99,,2013-07-07 12:34:00,
2013-07-07 07:43:00,69.0,67.0,29.96,SSE,150,0.0,-999.0,92,-99.99,,,-99.99,,2013-07-07 12:43:00,
2013-07-07 07:52:00,69.0,67.0,29.96,SSE,150,0.0,-999.0,92,-99.99,,,-99.99,,2013-07-07 12:52:00,
2013-07-07 08:02:00,70.0,67.0,29.96,SSE,166,0.0,-999.0,90,-99.99,,,-99.99,,2013-07-07 13:02:00,
2013-07-07 08:11:00,70.0,67.0,29.96,SSE,165,0.0,-999.0,89,-99.99,,,-99.99,,2013-07-07 13:11:00,
2013-07-07 08:22:00,70.0,67.0,29.96,SSE,165,0.0,-999.0,89,-99.99,,,-99.99,,2013-07-07 13:22:00,
2013-07-07 08:34:00,71.0,68.0,29.96,WSW,252,0.0,-999.0,89,-99.99,,,-99.99,,2013-07-07 13:34:00,
2013-07-07 08:43:00,71.0,67.0,29.96,SW,234,0.0,-999.0,88,-99.99,,,-99.99,,2013-07-07 13:43:00,
2013-07-07 08:52:00,71.0,67.0,29.96,SW,234,0.0,-999.0,88,-99.99,,,-99.99,,2013-07-07 13:52:00,
2013-07-07 09:02:00,71.0,67.0,29.96,SW,234,0.0,-999.0,88,-99.99,,,-99.99,,2013-07-07 14:02:00,
2013-07-07 09:12:00,73.0,69.0,29.96,SE,145,0.0,-999.0,87,-99.99,,,-99.99,,2013-07-07 14:12:00,
2013-07-07 09:22:00,73.0,69.0,29.96,SE,145,0.0,-999.0,87,-99.99,,,-99.99,,2013-07-07 14:22:00,
2013-07-07 09:34:00,75.0,69.0,29.95,SW,226,0.0,-999.0,82,-99.99,,,-99.99,,2013-07-07 14:34:00,
2013-07-07 09:43:00,77.0,71.0,29.95,SSW,205,0.0,-999.0,82,-99.99,,,-99.99,,2013-07-07 14:43:00,
2013-07-07 09:53:00,77.0,71.0,29.95,SSW,205,0.0,-999.0,82,-99.99,,,-99.99,,2013-07-07 14:53:00,
2013-07-07 10:02:00,78.0,71.0,29.95,SW,231,3.0,-999.0,78,-99.99,,,-99.99,,2013-07-07 15:02:00,
2013-07-07 10:11:00,79.0,72.0,29.95,WSW,248,2.0,-999.0,78,-99.99,,,-99.99,,2013-07-07 15:11:00,
2013-07-07 10:22:00,79.0,72.0,29.95,WSW,248,2.0,-999.0,78,-99.99,,,-99.99,,2013-07-07 15:22:00,
2013-07-07 10:34:00,80.0,71.0,29.94,SW,231,2.0,-999.0,75,-99.99,,,-99.99,,2013-07-07 15:34:00,
2013-07-07 10:43:00,80.0,70.0,29.95,SSE,162,1.0,-999.0,72,-99.99,,,-99.99,,2013-07-07 15:43:00,
2013-07-07 10:52:00,80.0,70.0,29.95,SSE,162,1.0,-999.0,72,-99.99,,,-99.99,,2013-07-07 15:52:00,
2013-07-07 11:01:00,81.0,70.0,29.94,SSW,203,1.0,-999.0,70,-99.99,,,-99.99,,2013-07-07 16:01:00,
2013-07-07 11:11:00,82.0,73.0,29.94,SSW,199,0.0,-999.0,74,-99.99,,,-99.99,,2013-07-07 16:11:00,
2013-07-07 11:23:00,82.0,73.0,29.94,SSW,199,0.0,-999.0,74,-99.99,,,-99.99,,2013-07-07 16:23:00,
2013-07-07 11:43:00,84.0,73.0,29.94,ESE,115,0.0,-999.0,69,-99.99,,,-99.99,,2013-07-07 16:43:00,
2013-07-07 11:53:00,84.0,73.0,29.94,ESE,115,0.0,-999.0,69,-99.99,,,-99.99,,2013-07-07 16:53:00,
2013-07-07 12:02:00,85.0,73.0,29.94,SE,142,0.0,-999.0,68,-99.99,,,-99.99,,2013-07-07 17:02:00,
2013-07-07 12:12:00,85.0,73.0,29.94,SSE,148,0.0,-999.0,68,-99.99,,,-99.99,,2013-07-07 17:12:00,
2013-07-07 12:22:00,85.0,73.0,29.94,SSE,148,0.0,-999.0,68,-99.99,,,-99.99,,2013-07-07 17:22:00,
2013-07-07 12:34:00,85.0,74.0,29.93,SSE,153,2.0,-999.0,70,-99.99,,,-99.99,,2013-07-07 17:34:00,
2013-07-07 12:43:00,85.0,73.0,29.93,ESE,102,1.0,-999.0,68,-99.99,,,-99.99,,2013-07-07 17:43:00,
2013-07-07 12:53:00,85.0,73.0,29.93,ESE,102,1.0,-999.0,68,-99.99,,,-99.99,,2013-07-07 17:53:00,
2013-07-07 13:02:00,86.0,73.0,29.93,WSW,244,1.0,-999.0,66,-99.99,,,-99.99,,2013-07-07 18:02:00,
2013-07-07 13:11:00,86.0,72.0,29.93,SSE,150,0.0,-999.0,64,-99.99,,,-99.99,,2013-07-07 18:11:00,
2013-07-07 13:22:00,86.0,72.0,29.93,SSE,150,0.0,-999.0,64,-99.99,,,-99.99,,2013-07-07 18:22:00,
2013-07-07 13:33:00,87.0,73.0,29.93,South,180,0.0,-999.0,64,-99.99,,,-99.99,,2013-07-07 18:33:00,
2013-07-07 13:43:00,87.0,70.0,29.93,SW,225,0.0,-999.0,58,-99.99,,,-99.99,,2013-07-07 18:43:00,
2013-07-07 13:53:00,87.0,70.0,29.93,SW,225,0.0,-999.0,58,-99.99,,,-99.99,,2013-07-07 18:53:00,
2013-07-07 14:01:00,87.0,72.0,29.93,SSE,168,1.0,-999.0,61,-99.99,,,-99.99,,2013-07-07 19:01:00,
2013-07-07 14:11:00,88.0,73.0,29.92,South,188,0.0,-999.0,61,-99.99,,,-99.99,,2013-07-07 19:11:00,
2013-07-07 14:22:00,88.0,73.0,29.92,South,188,0.0,-999.0,61,-99.99,,,-99.99,,2013-07-07 19:22:00,
2013-07-07 14:34:00,88.0,74.0,29.92,South,173,0.0,-999.0,64,-99.99,,,-99.99,,2013-07-07 19:34:00,
2013-07-07 14:43:00,88.0,73.0,29.92,SSE,153,1.0,-999.0,62,-99.99,,,-99.99,,2013-07-07 19:43:00,
2013-07-07 14:54:00,88.0,73.0,29.92,SSE,153,1.0,-999.0,62,-99.99,,,-99.99,,2013-07-07 19:54:00,
2013-07-07 15:02:00,88.0,70.0,29.91,SE,136,1.0,-999.0,56,-99.99,,,-99.99,,2013-07-07 20:02:00,
2013-07-07 15:11:00,89.0,73.0,29.92,SE,130,1.0,-999.0,60,-99.99,,,-99.99,,2013-07-07 20:11:00,
2013-07-07 15:22:00,89.0,73.0,29.92,SE,130,1.0,-999.0,60,-99.99,,,-99.99,,2013-07-07 20:22:00,
2013-07-07 15:34:00,89.0,73.0,29.91,SE,142,1.0,-999.0,59,-99.99,,,-99.99,,2013-07-07 20:34:00,
2013-07-07 15:42:00,89.0,74.0,29.91,SE,140,1.0,-999.0,61,-99.99,,,-99.99,,2013-07-07 20:42:00,
2013-07-07 15:53:00,89.0,74.0,29.91,SE,140,1.0,-999.0,61,-99.99,,,-99.99,,2013-07-07 20:53:00,
2013-07-07 16:02:00,89.0,72.0,29.91,South,186,1.0,-999.0,57,-99.99,,,-99.99,,2013-07-07 21:02:00,
2013-07-07 16:11:00,88.0,71.0,29.90,WSW,250,1.0,-999.0,57,-99.99,,,-99.99,,2013-07-07 21:11:00,
2013-07-07 16:22:00,88.0,71.0,29.90,WSW,250,1.0,-999.0,57,-99.99,,,-99.99,,2013-07-07 21:22:00,
2013-07-07 16:33:00,88.0,72.0,29.90,SSW,202,1.0,-999.0,59,-99.99,,,-99.99,,2013-07-07 21:33:00,
2013-07-07 16:43:00,89.0,73.0,29.90,SW,233,1.0,-999.0,59,-99.99,,,-99.99,,2013-07-07 21:43:00,
2013-07-07 16:53:00,89.0,73.0,29.90,SW,233,1.0,-999.0,59,-99.99,,,-99.99,,2013-07-07 21:53:00,
2013-07-07 17:01:00,89.0,72.0,29.90,SSW,208,1.0,-999.0,58,-99.99,,,-99.99,,2013-07-07 22:01:00,
2013-07-07 17:11:00,89.0,71.0,29.90,SSW,206,0.0,-999.0,55,-99.99,,,-99.99,,2013-07-07 22:11:00,
2013-07-07 17:22:00,89.0,71.0,29.90,SSW,206,0.0,-999.0,55,-99.99,,,-99.99,,2013-07-07 22:22:00,
2013-07-07 17:34:00,88.0,72.0,29.90,WSW,238,2.0,-999.0,59,-99.99,,,-99.99,,2013-07-07 22:34:00,
2013-07-07 17:43:00,88.0,72.0,29.90,SSW,211,2.0,-999.0,59,-99.99,,,-99.99,,2013-07-07 22:43:00,
2013-07-07 17:53:00,88.0,72.0,29.90,SSW,211,2.0,-999.0,59,-99.99,,,-99.99,,2013-07-07 22:53:00,
2013-07-07 18:02:00,88.0,71.0,29.89,SSW,196,0.0,-999.0,57,-99.99,,,-99.99,,2013-07-07 23:02:00,
2013-07-07 18:12:00,88.0,72.0,29.90,WSW,240,0.0,-999.0,60,-99.99,,,-99.99,,2013-07-07 23:12:00,
2013-07-07 18:22:00,88.0,72.0,29.90,WSW,240,0.0,-999.0,60,-99.99,,,-99.99,,2013-07-07 23:22:00,
2013-07-07 18:33:00,87.0,73.0,29.90,SSW,213,1.0,-999.0,63,-99.99,,,-99.99,,2013-07-07 23:33:00,
2013-07-07 18:43:00,86.0,73.0,29.90,SW,225,1.0,-999.0,65,-99.99,,,-99.99,,2013-07-07 23:43:00,
2013-07-07 18:53:00,86.0,73.0,29.90,SW,225,1.0,-999.0,65,-99.99,,,-99.99,,2013-07-07 23:53:00,
2013-07-07 19:01:00,86.0,73.0,29.90,SW,215,1.0,-999.0,65,-99.99,,,-99.99,,2013-07-08 00:01:00,
2013-07-07 19:12:00,86.0,73.0,29.90,WSW,240,0.0,-999.0,66,-99.99,,,-99.99,,2013-07-08 00:12:00,
2013-07-07 19:22:00,86.0,73.0,29.90,WSW,240,0.0,-999.0,66,-99.99,,,-99.99,,2013-07-08 00:22:00,
2013-07-07 19:33:00,85.0,73.0,29.90,SSW,196,0.0,-999.0,67,-99.99,,,-99.99,,2013-07-08 00:33:00,
2013-07-07 19:43:00,85.0,74.0,29.90,SW,225,0.0,-999.0,69,-99.99,,,-99.99,,2013-07-08 00:43:00,
2013-07-07 19:53:00,85.0,74.0,29.90,SW,225,0.0,-999.0,69,-99.99,,,-99.99,,2013-07-08 00:53:00,
2013-07-07 20:01:00,84.0,72.0,29.90,South,184,0.0,-999.0,68,-99.99,,,-99.99,,2013-07-08 01:01:00,
2013-07-07 20:11:00,83.0,72.0,29.90,ESE,103,0.0,-999.0,69,-99.99,,,-99.99,,2013-07-08 01:11:00,
2013-07-07 20:22:00,83.0,72.0,29.90,ESE,103,0.0,-999.0,69,-99.99,,,-99.99,,2013-07-08 01:22:00,
2013-07-07 20:32:00,82.0,71.0,29.90,WSW,255,0.0,-999.0,70,-99.99,,,-99.99,,2013-07-08 01:32:00,
2013-07-07 20:43:00,81.0,71.0,29.90,West,259,0.0,-999.0,72,-99.99,,,-99.99,,2013-07-08 01:43:00,
2013-07-07 20:52:00,81.0,71.0,29.90,West,259,0.0,-999.0,72,-99.99,,,-99.99,,2013-07-08 01:52:00,
2013-07-07 21:02:00,80.0,71.0,29.90,NE,37,0.0,-999.0,74,-99.99,,,-99.99,,2013-07-08 02:02:00,
2013-07-07 21:11:00,80.0,71.0,29.90,ESE,110,0.0,-999.0,74,-99.99,,,-99.99,,2013-07-08 02:11:00,
2013-07-07 21:22:00,80.0,71.0,29.90,ESE,110,0.0,-999.0,74,-99.99,,,-99.99,,2013-07-08 02:22:00,
2013-07-07 21:33:00,80.0,71.0,29.91,ESE,118,0.0,-999.0,75,-99.99,,,-99.99,,2013-07-08 02:33:00,
2013-07-07 21:42:00,79.0,71.0,29.91,ESE,118,0.0,-999.0,77,-99.99,,,-99.99,,2013-07-08 02:42:00,
2013-07-07 21:52:00,79.0,71.0,29.91,ESE,118,0.0,-999.0,77,-99.99,,,-99.99,,2013-07-08 02:52:00,
2013-07-07 22:01:00,79.0,72.0,29.91,ESE,118,0.0,-999.0,78,-99.99,,,-99.99,,2013-07-08 03:01:00,
2013-07-07 22:12:00,78.0,71.0,29.91,ESE,118,0.0,-999.0,79,-99.99,,,-99.99,,2013-07-08 03:12:00,
2013-07-07 22:23:00,78.0,71.0,29.91,ESE,118,0.0,-999.0,79,-99.99,,,-99.99,,2013-07-08 03:23:00,
2013-07-07 22:34:00,78.0,71.0,29.92,ESE,118,0.0,-999.0,79,-99.99,,,-99.99,,2013-07-08 03:34:00,
2013-07-07 22:42:00,78.0,71.0,29.92,ESE,118,0.0,-999.0,80,-99.99,,,-99.99,,2013-07-08 03:42:00,
2013-07-07 22:52:00,78.0,71.0,29.92,ESE,118,0.0,-999.0,80,-99.99,,,-99.99,,2013-07-08 03:52:00,
2013-07-07 23:02:00,78.0,71.0,29.92,ESE,120,0.0,-999.0,80,-99.99,,,-99.99,,2013-07-08 04:02:00,
2013-07-07 23:12:00,78.0,71.0,29.92,ESE,122,0.0,-999.0,80,-99.99,,,-99.99,,2013-07-08 04:12:00,
2013-07-07 23:22:00,78.0,71.0,29.92,ESE,122,0.0,-999.0,80,-99.99,,,-99.99,,2013-07-08 04:22:00,
2013-07-07 23:33:00,78.0,71.0,29.92,ESE,122,0.0,-999.0,80,-99.99,,,-99.99,,2013-07-08 04:33:00,
2013-07-07 23:42:00,78.0,72.0,29.93,SE,128,0.0,-999.0,81,-99.99,,,-99.99,,2013-07-08 04:42:00,
2013-07-07 23:53:00,78.0,72.0,29.93,SE,128,0.0,-999.0,81,-99.99,,,-99.99,,2013-07-08 04:53:00,